GFSGBSN_850_temp_231.txt.gz
Temp
1 1 1 1 1 1 1 1 1 2 2 2 3 3 4 4 5 6 7 7 7 7 7 7 8 9 11 12 14 14 13 12 14 14 16 17 19 22 24 25 26 27 28 27 27 28 28
1 1 1 1 2 1 1 1 1 2 2 2 2 3 3 4 5 5 6 6 7 7 8 8 8 8 7 11 12 12 11 12 13 14 15 17 18 21 23 25 26 26 27 26 27 27 27
1 1 1 1 1 1 0 1 1 1 2 2 2 3 3 4 4 5 6 7 7 8 8 8 8 8 6 9 11 11 11 11 12 13 13 16 17 17 21 22 24 25 25 26 27 27 28
1 1 1 1 1 1 0 0 1 1 2 2 3 3 4 4 5 6 7 7 7 8 8 8 8 5 9 10 9 10 11 12 13 13 13 14 15 16 18 20 23 23 24 24 26 27 27
1 1 1 1 1 1 0 0 1 1 2 2 3 4 5 5 6 7 7 7 7 7 7 7 6 7 11 10 11 10 10 11 13 14 14 14 15 16 19 19 21 22 23 24 26 28 28
1 2 2 2 1 0 0 0 1 2 2 3 4 4 5 5 6 6 7 6 6 6 6 5 6 8 9 10 10 10 11 11 11 13 15 15 16 18 19 21 20 22 23 25 26 28 29
3 2 1 1 0 0 1 2 2 2 3 4 4 4 4 5 5 5 5 6 7 8 6 8 8 8 9 9 9 10 10 11 12 13 16 16 17 18 19 20 22 23 25 26 27 28 29
3 1 0 0 0 1 1 2 2 3 4 4 4 4 4 4 4 4 4 4 3 3 3 7 8 8 9 9 9 10 10 11 13 15 16 17 17 19 20 21 21 21 22 24 26 28 27
2 2 1 1 1 1 1 2 2 3 3 3 3 3 4 4 4 3 4 3 3 3 6 9 9 9 9 8 10 10 10 11 13 15 16 17 18 20 20 20 20 20 21 22 24 25 25
3 2 2 1 1 1 1 2 2 3 3 3 2 3 4 4 3 3 4 3 2 2 9 12 12 10 10 10 11 11 11 11 13 13 15 17 19 19 20 20 21 20 21 21 22 23 23
3 3 3 1 1 1 1 1 1 2 3 2 2 3 3 3 2 4 3 2 2 2 9 12 12 10 11 12 12 12 11 11 11 13 14 16 18 18 19 21 21 20 21 20 20 21 21
4 3 3 3 1 1 1 1 1 2 3 2 1 1 3 2 2 2 2 3 3 7 8 12 12 12 13 14 12 11 11 11 11 13 13 14 15 19 19 20 21 22 21 20 19 19 19
3 3 3 4 3 2 1 1 2 3 2 2 2 2 3 1 3 1 2 4 7 7 12 12 11 12 13 13 12 9 10 10 12 11 12 14 15 17 18 17 19 20 19 18 17 17 16
3 3 3 3 3 2 2 2 3 3 2 2 2 2 2 2 1 2 2 8 7 9 10 11 11 11 11 13 13 13 10 9 12 14 14 14 14 16 17 17 18 18 19 17 17 18 19
4 4 4 3 3 1 1 2 2 3 2 2 1 1 1 1 2 1 6 5 6 9 10 9 10 11 12 13 13 12 12 10 11 11 11 14 15 19 19 19 18 17 19 20 18 20 20
3 4 4 3 3 2 1 1 1 1 2 2 1 3 2 2 2 2 6 4 7 8 8 9 8 10 10 11 11 11 12 9 11 10 11 12 12 16 18 18 18 18 19 18 18 16 16
3 3 3 4 3 2 1 0 1 1 2 2 2 5 1 1 1 5 5 4 8 8 8 8 8 9 10 10 11 11 12 12 8 9 10 10 10 14 16 16 17 17 17 18 18 19 17
4 4 4 3 3 3 1 0 -0 0 1 1 3 2 -0 1 3 3 3 6 5 8 7 8 8 8 8 9 9 10 11 12 11 10 8 5 7 9 13 17 18 18 16 15 17 16 18
3 3 3 3 3 3 2 0 -0 0 1 2 1 2 -0 -0 4 2 4 6 6 7 7 7 7 9 8 7 6 10 10 11 10 10 9 8 8 9 12 15 16 15 17 16 14 16 15
3 3 3 3 3 3 2 0 -0 -0 0 0 1 1 2 1 1 2 3 4 6 6 6 7 7 7 8 7 8 8 8 9 8 9 7 8 8 8 9 10 10 10 13 15 15 10 12
3 3 2 2 2 2 2 -0 -0 -0 -0 -0 0 1 3 2 1 2 3 4 5 6 6 6 6 7 7 5 6 6 8 8 8 9 8 8 7 9 10 11 12 11 12 13 13 14 10
2 2 2 1 1 2 1 -0 -1 -1 -1 1 -0 2 2 3 4 4 3 2 5 6 5 5 5 6 7 5 6 5 6 7 6 8 8 9 6 8 7 10 11 11 12 12 13 13 14
2 2 1 1 0 1 1 -0 -1 -1 -0 2 1 1 2 3 5 5 4 5 6 5 4 5 5 5 5 6 5 4 4 5 6 6 6 6 7 7 6 10 10 8 9 12 13 14 14
1 1 0 1 1 0 -1 -1 -1 -1 -0 0 1 2 1 2 5 5 5 5 5 5 5 4 4 5 5 4 3 3 4 5 5 6 7 5 5 6 6 8 6 11 14 14 14 15 16
2 1 -0 -1 -1 0 -1 -0 -1 -1 -1 -1 -1 0 -0 1 4 5 5 5 5 5 5 5 4 3 3 3 3 3 5 7 8 10 9 8 7 5 5 7 9 11 13 13 13 13 15
2 1 -0 -1 -1 -1 -1 -1 -0 -1 -2 -2 -1 -1 -1 -1 3 3 4 4 5 5 5 4 3 3 2 3 2 2 4 6 8 10 11 11 9 6 6 5 6 11 13 14 11 9 13
2 1 0 -1 -2 -2 -2 -2 -2 -2 -2 -2 -1 -1 -1 -1 1 1 3 3 3 3 3 3 3 3 3 2 2 3 4 7 6 7 9 8 7 6 6 6 8 12 9 10 10 9 10
1 1 0 -1 -2 -2 -3 -3 -4 -4 -3 -3 -2 -2 -2 -2 -0 0 1 1 2 1 1 2 2 2 2 1 3 4 4 5 5 8 7 8 7 6 6 6 6 8 7 6 6 8 9
0 0 0 0 -1 -2 -3 -3 -3 -4 -4 -4 -3 -3 -3 -3 -1 -1 -1 -0 0 1 0 1 1 3 3 3 4 3 3 4 5 5 8 6 8 5 6 8 8 9 9 7 9 9 8

GFSGBSN_850_temp_234.txt.gz
Temp
1 1 2 2 2 1 1 1 2 2 2 3 3 4 5 5 6 7 8 8 9 9 10 10 11 11 13 13 16 14 13 13 13 14 15 17 19 20 22 24 24 25 27 27 28 28 29
1 1 1 2 2 2 2 2 2 2 3 3 4 4 5 6 6 7 8 9 9 9 9 10 10 10 8 13 14 13 13 12 13 14 16 15 19 19 20 22 24 25 26 27 28 28 28
1 1 2 2 2 2 1 2 2 3 3 4 4 5 5 6 7 7 7 8 9 9 10 10 10 10 8 11 12 12 12 13 13 13 14 15 15 17 19 20 22 24 24 26 28 27 28
1 1 2 2 2 2 1 2 2 2 3 4 5 5 5 6 7 7 8 9 9 8 8 9 9 7 10 12 12 13 12 13 14 14 14 15 15 15 16 19 20 21 24 24 27 27 27
2 2 2 2 2 2 2 2 3 3 3 4 4 5 5 6 7 8 8 8 8 8 8 8 8 8 13 12 12 12 12 12 13 13 14 15 15 16 17 18 19 21 21 23 24 27 27
2 2 3 3 3 2 2 2 2 3 4 4 5 5 6 7 7 7 8 9 9 9 9 8 9 10 12 11 11 11 12 12 13 14 14 15 16 16 17 17 18 19 22 23 24 26 26
2 3 3 3 3 2 2 2 2 4 4 5 5 6 6 6 7 6 8 8 9 9 8 9 10 10 11 11 11 13 13 12 13 13 15 16 16 16 17 19 19 21 22 23 25 27 26
3 3 3 3 3 2 2 2 3 5 5 5 5 5 6 6 6 5 6 6 5 4 6 10 10 11 11 11 12 12 13 13 13 14 16 16 16 17 19 19 20 20 20 21 24 26 26
4 4 3 2 2 2 3 3 4 5 5 5 5 6 6 6 5 5 5 5 5 4 7 11 11 11 11 12 13 13 13 13 13 13 14 15 17 19 19 18 19 20 20 21 21 23 25
4 4 4 3 4 3 4 4 5 5 5 5 5 5 5 5 4 5 6 5 4 3 9 13 14 12 12 13 14 13 13 13 13 12 14 14 17 18 18 18 19 19 21 21 21 21 20
3 3 4 4 5 5 5 5 5 5 5 5 5 5 5 4 4 5 4 4 4 4 11 14 14 12 13 15 13 13 12 13 12 13 13 13 15 16 17 18 20 19 21 22 22 21 20
2 3 4 4 4 4 5 5 5 4 4 5 5 5 4 3 3 3 4 5 4 8 9 13 14 14 14 14 15 13 13 13 12 13 13 13 14 15 15 17 20 21 21 21 21 21 18
3 3 3 4 4 4 4 5 5 4 4 4 4 4 4 3 3 5 6 5 8 8 13 13 13 13 13 14 15 15 14 14 10 7 10 14 14 16 16 16 19 19 19 17 18 18 17
3 3 3 4 4 4 5 5 5 4 4 3 3 3 2 2 4 5 4 9 8 11 12 13 12 12 13 14 14 14 13 13 12 10 11 12 12 16 18 16 15 18 19 17 15 17 19
3 3 3 3 4 4 4 5 5 4 4 3 3 3 3 3 5 4 6 5 6 10 11 10 11 12 13 14 13 13 13 12 13 12 10 10 11 13 16 18 17 14 16 20 18 19 18
3 3 4 4 4 4 4 4 4 4 3 4 3 4 3 4 4 4 7 4 9 10 10 10 9 11 10 11 12 12 13 11 10 10 11 11 9 13 15 16 18 18 19 16 17 15 15
1 3 3 4 4 4 4 4 3 3 3 3 3 6 2 4 4 6 4 5 9 10 9 9 9 9 10 10 11 11 12 12 9 9 10 10 10 11 13 14 15 16 17 17 17 15 15
2 1 4 4 4 3 3 3 3 2 3 4 4 3 2 2 5 3 3 8 7 9 9 9 10 10 9 9 9 9 10 11 9 10 9 8 8 9 11 14 15 15 14 10 11 15 17
2 2 3 3 4 3 3 3 2 2 2 2 3 3 2 2 3 2 5 7 8 8 9 9 9 9 9 8 8 9 10 11 10 10 8 9 9 8 10 14 12 10 12 12 10 11 12
1 2 2 3 3 3 3 2 2 2 2 3 3 1 3 3 2 4 5 6 8 8 8 8 8 8 8 9 9 8 8 9 9 9 9 8 8 8 8 10 8 7 9 11 12 9 8
-0 1 1 2 2 3 3 2 1 1 2 2 2 2 5 3 1 3 5 5 6 7 8 8 8 8 8 6 7 7 8 8 9 9 9 9 6 8 9 10 10 10 10 11 11 12 11
-1 -1 -0 1 1 2 3 2 1 0 1 1 3 3 4 5 6 6 5 2 6 8 8 7 7 7 8 6 7 6 7 7 6 7 8 8 6 8 6 8 10 10 11 12 12 13 14
-1 -1 -1 -0 -0 1 2 1 2 1 1 2 3 3 4 4 6 6 5 6 7 8 7 6 6 6 6 7 6 6 5 5 5 5 5 6 6 6 5 8 9 7 10 12 12 13 13
-2 -2 -2 -1 -1 -1 1 1 1 0 1 1 2 3 3 3 6 7 7 7 7 7 7 6 6 6 6 5 5 5 5 6 6 6 6 5 5 6 5 6 4 10 13 13 13 13 14
-2 -2 -2 -2 -0 0 1 1 0 -0 0 0 1 2 2 2 5 6 7 7 7 7 7 7 7 6 4 4 4 3 5 7 8 9 8 8 7 6 4 6 8 9 11 11 11 10 11
-2 -2 -2 -2 -2 -2 -0 -1 1 -0 -0 -0 -0 -0 1 0 3 5 5 6 6 6 6 6 5 4 4 4 3 2 4 6 7 9 11 11 9 6 6 5 6 10 12 12 11 9 9
-2 -2 -2 -2 -2 -2 -2 -2 -1 -0 -1 -1 -1 -1 -0 -0 1 2 4 5 5 5 5 5 5 4 4 3 2 3 4 7 6 7 8 9 9 6 6 5 7 10 9 9 8 7 8
-2 -2 -2 -2 -2 -2 -3 -3 -2 -2 -2 -2 -2 -1 -1 -1 1 2 3 3 3 4 3 4 3 4 4 2 3 4 4 6 6 7 7 7 7 7 7 6 6 8 6 5 6 7 7
-2 -2 -2 -2 -2 -3 -2 -3 -3 -3 -3 -4 -2 -2 -1 -2 -1 1 -0 0 1 2 2 2 2 4 4 3 4 3 3 3 4 3 6 5 7 6 6 6 8 9 6 5 6 4 6

GFSGBSN_850_temp_240.txt.gz
Temp
1 1 1 1 1 1 1 1 2 3 4 6 6 7 7 7 8 8 9 10 11 11 12 13 13 14 13 13 11 12 12 13 14 14 14 15 15 15 13 14 16 17 18 20 20 20 21
1 1 1 1 1 1 1 2 2 3 5 6 6 7 7 8 8 9 9 10 11 11 11 12 13 13 13 10 12 12 13 13 13 13 14 14 14 14 14 14 13 16 16 17 19 19 20
1 1 0 2 2 1 1 2 3 4 5 6 6 7 7 8 8 8 9 10 10 11 11 11 12 12 12 11 12 13 13 13 13 13 13 13 14 14 14 13 16 15 15 16 18 19 19
1 1 1 2 2 1 2 3 3 5 5 6 6 7 7 8 8 8 9 10 10 10 10 10 11 12 12 12 12 12 13 13 13 13 13 13 14 14 14 14 14 13 14 14 18 19 20
2 2 2 3 2 2 2 3 4 5 5 6 6 7 7 7 7 7 9 9 10 10 10 10 10 10 11 12 12 13 13 13 13 13 13 14 14 14 14 11 10 11 11 13 15 19 18
0 2 3 4 3 3 3 4 5 5 5 6 6 7 7 7 7 8 9 9 10 10 10 10 11 11 12 12 12 13 13 13 13 13 13 13 13 9 8 8 8 10 11 12 12 14 17
1 2 3 4 4 4 4 4 5 5 5 6 6 7 7 7 7 9 9 10 10 11 10 10 10 11 12 12 13 13 13 13 12 12 9 12 8 8 9 10 11 12 11 11 13 15 15
1 2 4 4 5 4 4 5 5 5 5 5 6 7 7 6 6 6 9 8 5 7 9 11 11 11 12 12 11 13 13 12 12 10 11 8 8 10 11 11 11 12 11 12 13 15 16
1 2 3 5 5 6 5 5 5 5 5 6 6 7 7 6 6 6 6 4 4 6 7 11 11 12 12 12 12 13 13 12 12 11 9 9 10 12 12 11 11 11 11 12 13 14 15
2 2 3 4 6 6 6 6 6 5 5 6 6 6 7 7 7 6 6 5 5 6 5 11 11 12 13 13 12 13 13 13 11 10 10 10 11 11 11 10 11 9 12 12 13 13 12
2 4 4 4 5 6 6 6 6 5 5 6 6 6 7 7 6 6 5 5 6 6 2 12 13 13 12 13 13 14 14 12 11 10 10 9 10 10 10 11 12 11 12 12 12 12 12
2 4 4 5 5 6 6 6 6 6 5 6 7 7 6 6 6 6 6 6 6 1 3 12 12 11 10 12 13 13 13 12 11 10 10 9 12 11 11 12 12 12 12 12 12 12 11
0 3 4 5 5 5 6 6 6 6 6 6 7 6 6 7 6 6 6 6 2 2 10 10 10 10 10 10 11 10 10 8 7 6 7 8 10 11 12 10 11 11 9 8 10 10 11
-0 3 4 4 5 5 5 6 6 6 6 6 6 6 6 6 7 6 6 2 2 7 9 10 10 9 10 9 10 9 9 8 7 7 6 6 7 9 11 10 10 10 11 7 8 9 10
-1 1 4 4 5 5 5 6 6 6 6 6 5 6 5 5 5 6 7 -0 1 7 10 9 9 9 8 9 9 8 8 7 7 7 6 6 7 9 10 11 11 11 8 11 8 7 9
-1 -1 1 3 4 4 5 5 6 6 6 6 5 5 5 5 6 6 2 2 5 10 9 9 8 8 7 7 7 7 8 7 7 8 8 7 5 9 9 11 11 10 11 8 9 8 8
-1 -1 -1 1 2 4 5 5 5 5 5 5 4 5 5 5 5 6 -1 -0 8 9 9 8 7 7 8 6 7 7 8 7 8 7 8 6 6 7 8 8 8 9 8 9 9 7 9
-1 -1 -1 -1 1 3 4 4 5 5 4 4 4 1 4 5 3 0 -3 5 7 8 9 9 8 8 7 6 6 6 8 8 7 7 5 7 5 4 6 8 9 8 7 8 7 7 8
-1 -1 -1 -1 -1 1 4 4 4 4 3 4 4 3 3 4 -3 -4 1 5 7 7 8 7 7 7 7 6 5 6 7 7 6 6 5 6 3 2 5 7 8 7 8 8 8 7 7
-1 -1 -1 -2 -2 -0 1 3 3 3 3 3 3 -1 2 3 1 0 2 4 6 8 7 8 7 7 7 6 6 5 5 7 6 6 6 6 3 4 2 4 5 5 6 7 7 5 6
-1 -2 -2 -2 -2 -1 0 2 2 1 2 3 2 1 3 -4 -2 1 3 4 5 6 7 7 7 6 5 4 4 4 5 4 5 5 4 3 2 4 4 4 5 5 5 6 6 7 5
-1 -2 -2 -2 -2 -2 -1 1 1 1 1 2 3 3 3 3 3 1 1 -0 3 5 6 6 5 5 5 4 4 3 4 4 3 4 3 3 1 2 2 4 4 5 5 5 6 7 7
-1 -2 -2 -2 -2 -2 -2 -1 -0 0 1 2 3 3 4 2 1 -1 -1 2 4 5 6 7 6 5 4 4 4 4 4 4 4 3 2 2 1 1 1 4 4 -0 5 6 7 8 7
-1 -2 -2 -2 -2 -2 -2 -1 -0 -0 1 1 2 2 3 -2 0 1 4 5 4 5 5 6 6 4 4 4 5 5 4 3 2 2 3 2 2 2 0 2 -3 5 6 7 7 6 5
-1 -1 -1 -2 -2 -2 -2 -2 -1 -1 0 1 1 2 3 -4 1 2 4 4 5 6 6 6 6 5 4 4 -0 -1 -1 2 4 3 2 3 2 -1 -2 1 4 6 5 4 5 5 5
-1 -1 -1 -2 -2 -2 -2 -2 -2 -1 -1 0 1 1 1 1 -1 3 4 5 1 2 2 5 5 4 4 1 -3 -4 -2 2 3 5 6 3 2 -0 2 3 1 4 5 6 5 4 5
-1 -1 -1 -1 -2 -2 -2 -2 -2 -2 -1 -0 -0 -0 1 1 2 2 2 2 5 3 -2 3 4 4 4 -4 -8 -4 -1 3 2 4 5 2 1 1 1 1 3 4 6 6 4 4 5
-1 -1 -1 -1 -1 -2 -2 -2 -3 -3 -2 -1 -0 -0 -0 0 1 2 2 3 3 3 -2 2 0 1 -2 -5 -4 -4 -2 0 0 3 4 3 1 -0 -0 -3 0 5 5 3 4 5 5
-1 -1 -2 -2 -2 -2 -2 -2 -3 -3 -3 -2 -1 -1 -1 -1 -0 1 2 2 2 2 3 3 2 1 2 -4 -5 -5 -2 -4 -0 0 2 0 2 -0 1 1 4 4 4 4 4 4 5

GFSGBSN_850_temp_246.txt.gz
Temp
1 1 1 0 2 2 2 0 4 6 5 6 6 6 7 7 7 8 9 10 10 11 12 12 13 13 13 13 12 12 13 14 14 14 15 15 15 14 12 12 14 13 13 14 15 17 17
1 1 1 1 1 3 2 3 5 6 6 6 6 7 7 7 7 8 9 10 10 11 11 12 12 13 14 11 12 12 13 13 13 14 14 14 13 13 13 12 12 13 13 14 16 15 16
2 1 1 0 1 2 3 4 5 6 6 6 6 7 7 7 7 9 10 10 10 10 11 11 12 13 13 12 12 12 13 13 13 13 13 13 13 14 14 12 13 13 12 12 13 13 13
3 2 3 1 2 1 4 4 5 5 6 6 6 7 7 7 8 9 10 10 10 10 11 12 12 13 12 13 12 12 13 13 13 13 13 13 13 13 13 13 11 9 9 9 11 12 13
2 1 3 2 2 2 3 4 5 5 5 6 6 7 7 7 8 10 10 10 10 10 11 12 12 13 12 13 12 12 13 13 13 13 13 13 13 12 11 8 7 6 8 9 8 11 11
1 1 3 2 3 4 3 5 5 5 5 6 6 7 7 7 9 9 10 10 10 11 11 12 12 13 12 12 13 13 13 13 12 13 13 13 12 6 5 6 6 7 7 7 7 9 10
1 1 2 4 3 4 4 3 6 5 5 6 6 7 7 8 9 10 10 10 11 11 11 10 10 11 12 12 13 13 13 13 12 11 8 10 7 6 8 9 9 9 8 7 7 9 10
0 1 1 4 3 4 4 3 5 5 5 6 7 7 7 7 7 9 9 10 8 8 10 11 12 12 12 12 13 13 13 12 11 7 8 7 7 9 10 9 9 9 8 8 8 10 11
0 0 1 1 3 3 5 4 5 6 5 6 6 7 7 6 6 7 8 8 8 8 9 11 11 12 12 12 12 12 12 11 9 8 7 7 10 10 9 8 8 8 9 8 8 9 9
1 0 0 1 2 2 3 5 5 6 6 5 6 6 7 7 7 6 7 7 7 8 5 10 11 12 12 12 12 12 12 12 9 9 9 9 9 9 9 9 9 8 9 9 8 7 7
1 0 -0 -0 -0 3 2 5 5 6 6 5 6 6 5 6 6 6 6 7 7 7 5 11 11 12 12 11 11 11 11 11 8 8 8 8 8 8 8 8 9 8 9 8 9 8 7
0 0 0 -1 -0 -0 2 3 5 5 5 5 6 6 5 6 6 6 7 7 8 2 4 10 10 9 10 10 10 10 10 10 9 8 7 8 9 9 9 9 9 9 9 8 8 7 7
1 0 -0 -1 -1 -0 0 3 3 4 5 5 6 6 5 6 7 7 7 7 3 2 9 9 8 8 8 7 7 7 6 5 4 6 4 5 7 8 8 7 8 7 7 6 7 7 8
1 0 0 -0 -1 -1 -1 0 2 3 4 5 5 5 4 5 6 6 7 3 2 5 8 9 8 8 7 7 7 7 6 5 5 5 4 4 7 7 8 8 7 7 8 4 4 7 7
1 0 -0 -0 -0 -1 -1 -1 2 2 3 4 4 4 4 5 5 6 7 -1 1 5 7 7 8 7 7 7 7 6 5 5 6 5 5 4 5 6 7 8 8 8 6 8 6 7 6
1 1 0 -0 -1 -1 -1 -1 0 2 2 3 3 3 4 5 5 5 1 2 5 6 8 8 7 7 5 6 6 6 6 6 6 6 6 5 4 7 6 8 8 8 8 6 6 7 7
0 0 1 -0 -0 -0 -1 -0 1 1 1 2 3 4 4 4 5 5 -1 0 5 8 9 7 6 6 5 5 6 6 5 5 6 6 6 5 4 5 6 6 6 5 5 5 6 6 5
0 0 1 0 -0 -1 -1 -1 -1 1 0 1 2 -1 3 4 3 -4 -3 3 7 7 8 7 7 6 5 5 5 5 5 5 6 6 5 5 3 3 5 5 6 6 5 5 5 5 5
-0 -0 0 0 -0 -0 -1 -1 -2 0 0 1 2 3 3 3 -2 -6 0 4 6 7 6 6 6 6 5 4 4 5 5 5 6 5 4 4 2 1 5 6 6 5 5 5 4 4 5
-1 -0 -0 0 0 -1 -1 -1 -2 -0 0 0 1 -2 2 3 2 0 2 4 5 7 6 6 5 6 5 5 5 4 4 4 5 5 5 5 3 3 3 5 3 4 4 4 4 -0 2
-1 -0 -0 -0 0 -0 -1 -1 -2 -1 -1 -0 1 -1 2 -3 -2 -1 3 3 4 5 6 6 5 4 4 3 4 4 4 4 4 4 3 3 1 3 3 3 3 3 3 3 3 3 2
-1 -1 -1 -0 -0 -0 -1 -1 -2 -2 -1 -1 0 1 1 0 0 1 2 1 4 4 4 4 4 3 3 3 3 3 3 3 3 3 3 2 0 2 1 2 2 2 3 2 3 3 3
-1 -2 -1 -1 -0 -0 -1 -1 -1 -2 -2 -2 1 1 2 -0 0 -0 -1 1 3 4 5 6 4 2 3 3 5 5 5 5 4 2 2 2 1 0 1 3 3 -0 2 3 5 4 4
-2 -2 -1 -1 -1 -0 -1 -1 -1 -2 -2 0 1 2 2 -3 -1 -0 2 3 3 4 4 4 5 4 5 5 5 3 3 2 2 2 3 1 1 0 -0 2 -2 4 5 5 4 4 4
-2 -1 -1 -1 -1 -1 -1 -1 -1 -2 -2 -1 0 2 3 -5 1 1 2 3 4 5 4 4 5 6 5 4 -0 -1 -2 2 1 0 -0 2 1 -3 -3 1 3 4 4 4 4 4 4
-2 -2 -1 -1 -1 -1 -1 -1 -2 -2 -2 -2 -0 1 2 0 -1 4 3 3 1 1 2 3 4 4 4 -0 -3 -4 -1 3 3 1 1 0 1 -1 -2 -2 -1 4 4 5 4 2 4
-2 -1 -1 -1 -1 -1 -1 -1 -2 -2 -2 -2 -1 -0 1 2 2 3 1 2 4 2 -1 2 2 3 3 -4 -7 -3 -0 2 2 3 1 0 -0 -2 -1 -1 1 3 5 4 3 3 3
-2 -1 -1 -1 -1 -1 -1 -1 -2 -2 -2 -2 -2 -0 1 2 2 2 3 3 4 4 -1 1 0 1 -2 -4 -4 -4 -2 -0 1 3 2 1 -0 -0 1 0 -1 4 4 3 3 3 4
-2 -2 -1 -1 -1 -1 -1 -2 -2 -2 -2 -3 -2 -1 -0 1 1 2 2 3 4 5 4 3 3 1 1 -4 -6 -5 -3 -4 0 0 1 1 2 0 1 1 3 4 4 5 4 3 3